period_start,C,m1,H,J0,J1,J2,J3,J4,J5,JA,JB,JC,JD,JJ,JK,JN,#
2018-07-25 00:02:06,0.00,0.59,0.00,24.33,28.10,31.08,13.96,46.80,1022.48,2024.93,3180.89,2917.99,3340.95,600.13,596.86,40.22,0000 0000 0000 0000 000000
2018-07-25 00:07:07,0.01,0.59,0.00,24.33,28.10,31.10,13.94,46.62,1022.48,2024.93,3180.60,2917.96,3340.45,599.96,596.72,40.28,0000 0000 0000 0000 000000
2018-07-25 00:12:09,0.01,0.59,0.00,24.32,28.10,31.10,14.01,46.67,1022.48,2024.90,3180.09,2917.83,3340.06,600.05,596.85,40.33,0000 0000 0000 0000 000000
2018-07-25 00:17:10,0.00,0.60,0.00,24.32,28.10,31.05,13.94,46.54,1022.48,2024.96,3180.02,2917.92,3340.04,599.97,596.79,40.38,0000 0000 0000 0000 000000
2018-07-25 00:22:11,-0.00,0.60,0.00,24.33,28.09,31.08,13.94,46.67,1022.48,2024.94,3180.04,2917.93,3340.01,599.80,596.64,40.43,0000 0000 0000 0000 000000
2018-07-25 00:27:12,0.01,0.60,0.00,24.32,28.07,31.09,14.02,46.84,1022.48,2024.95,3180.00,2917.66,3340.01,600.27,597.03,40.48,0000 0000 0000 0000 000000
2018-07-25 00:32:14,0.01,0.60,0.00,24.32,28.07,31.05,13.94,46.61,1022.48,2024.97,3179.89,2917.10,3340.00,599.96,596.67,40.53,0000 0000 0000 0000 000000
2018-07-25 00:37:15,-0.00,0.60,0.00,24.31,28.07,31.09,13.89,46.63,1022.48,2024.98,3179.85,2917.15,3339.99,599.89,596.69,40.58,0000 0000 0000 0000 000000
2018-07-25 00:42:16,-0.01,0.60,0.00,24.32,28.07,31.07,13.97,46.68,1022.48,2024.98,3179.96,2917.48,3340.00,600.19,596.99,40.63,0000 0000 0000 0000 000000
2018-07-25 00:47:17,0.00,0.60,0.00,24.32,28.07,31.09,13.93,46.72,1022.48,2024.99,3179.98,2917.60,3340.01,599.93,596.90,40.68,0000 0000 0000 0000 000000
2018-07-25 00:52:18,0.00,0.60,0.00,24.32,28.05,31.07,13.90,46.68,1022.48,2024.99,3179.95,2917.61,3340.00,599.96,596.75,40.73,0000 0000 0000 0000 000000
2018-07-25 00:57:20,-0.01,0.60,0.00,24.32,28.05,31.06,13.97,46.68,1022.48,2024.98,3179.94,2917.61,3340.00,599.96,596.78,40.78,0000 0000 0000 0000 000000
2018-07-25 01:02:21,-0.00,0.60,0.00,24.32,28.05,31.04,13.94,46.63,1022.48,2024.99,3179.98,2917.80,3340.00,600.17,597.00,40.83,0000 0000 0000 0000 000000
2018-07-25 01:07:22,-0.00,0.60,0.00,24.32,28.05,31.04,13.92,46.64,1022.48,2024.99,3179.98,2917.89,3340.01,599.72,596.50,40.88,0000 0000 0000 0000 000000
2018-07-25 01:12:23,0.00,0.60,0.00,24.32,28.05,31.04,13.97,46.89,1022.48,2024.99,3179.99,2917.94,3340.00,600.06,596.90,40.93,0000 0000 0000 0000 000000
2018-07-25 01:17:25,0.00,0.60,0.00,24.32,28.05,31.04,13.98,46.79,1022.48,2024.99,3179.97,2917.89,3340.01,600.07,596.81,40.98,0000 0000 0000 0000 000000
2018-07-25 01:22:26,0.00,0.60,0.00,24.33,28.04,30.99,13.92,46.67,1022.48,2024.99,3179.97,2917.94,3340.00,599.95,596.70,41.03,0000 0000 0000 0000 000000
2018-07-25 01:27:27,0.00,0.60,0.00,24.34,28.03,30.97,13.98,46.67,1022.48,2024.99,3179.97,2917.83,3340.00,599.94,596.79,41.08,0000 0000 0000 0000 000000
2018-07-25 01:32:28,0.00,0.60,0.00,24.34,28.03,30.97,13.90,46.64,1022.48,2024.99,3179.97,2917.92,3340.00,599.76,596.57,41.13,0000 0000 0000 0000 000000
2018-07-25 01:37:29,0.00,0.60,0.00,24.32,28.02,30.97,13.95,46.61,1022.48,2024.99,3179.93,2917.88,3340.00,599.88,596.69,41.19,0000 0000 0000 0000 000000
2018-07-25 01:42:31,0.00,0.60,0.00,24.33,28.02,31.00,13.95,46.67,1022.48,2024.99,3179.94,2917.86,3340.00,599.73,596.52,41.23,0000 0000 0000 0000 000000
2018-07-25 01:47:32,0.00,0.60,0.00,24.34,28.02,30.95,14.01,46.63,1022.48,2024.99,3179.95,2917.86,3340.00,600.30,597.00,41.29,0000 0000 0000 0000 000000
2018-07-25 01:52:33,-0.00,0.60,0.00,24.36,28.02,30.96,13.92,46.73,1022.47,2024.99,3179.95,2917.86,3340.00,600.08,596.78,41.34,0000 0000 0000 0000 000000
2018-07-25 01:57:34,0.00,0.60,0.00,24.35,28.02,30.98,13.94,46.69,1022.41,2024.99,3179.94,2917.89,3340.00,600.00,596.69,41.39,0000 0000 0000 0000 000000
2018-07-25 02:02:36,0.01,0.60,0.00,24.35,28.02,30.94,13.95,46.68,1022.21,2024.99,3179.74,2917.71,3339.99,599.74,596.37,41.44,0000 0000 0000 0000 000000
2018-07-25 02:07:37,0.00,0.60,0.00,24.35,28.02,30.95,13.96,46.74,1022.04,2024.99,3179.86,2917.67,3339.99,600.14,596.60,41.49,0000 0000 0000 0000 000000
2018-07-25 02:12:38,0.00,0.60,0.00,24.36,28.02,30.99,13.94,46.73,1022.02,2024.99,3179.75,2917.67,3339.99,600.20,596.67,41.54,0000 0000 0000 0000 000000
2018-07-25 02:17:39,0.00,0.60,0.00,24.36,28.02,30.99,13.97,46.74,1022.00,2024.99,3179.58,2917.47,3339.98,599.82,596.30,41.59,0000 0000 0000 0000 000000
2018-07-25 02:22:41,0.00,0.60,0.00,24.37,28.02,30.99,14.04,46.70,1021.99,2024.99,3179.49,2917.47,3339.99,600.26,596.73,41.64,0000 0000 0000 0000 000000
2018-07-25 02:27:42,-0.01,0.60,0.00,24.36,28.02,30.97,13.94,46.66,1021.99,2024.99,3179.74,2917.69,3339.98,599.67,596.12,41.69,0000 0000 0000 0000 000000
2018-07-25 02:32:44,0.00,0.60,0.00,24.36,28.02,30.97,13.92,46.85,1021.99,2024.99,3179.83,2917.79,3339.98,599.81,596.21,41.74,0000 0000 0000 0000 000000
2018-07-25 02:37:45,0.00,0.60,0.00,24.35,28.02,31.00,13.98,46.90,1021.99,2024.99,3179.56,2917.61,3339.99,599.96,596.54,41.79,0000 0000 0000 0000 000000
2018-07-25 02:42:46,0.00,0.60,0.00,24.35,28.02,30.99,13.99,46.80,1021.99,2024.99,3179.42,2917.63,3339.98,600.00,596.57,41.84,0000 0000 0000 0000 000000
2018-07-25 02:47:47,0.00,0.60,0.00,24.35,28.02,31.01,13.94,46.67,1021.99,2024.99,3179.25,2917.60,3339.97,600.00,596.59,41.89,0000 0000 0000 0000 000000
2018-07-25 02:52:48,-0.01,0.60,0.00,24.36,28.02,31.01,13.90,46.69,1021.99,2024.99,3179.31,2917.69,3339.98,599.77,596.28,41.94,0000 0000 0000 0000 000000
2018-07-25 02:57:49,0.00,0.60,0.00,24.37,28.02,30.99,13.93,46.77,1021.99,2024.99,3179.47,2917.76,3339.97,600.12,596.44,41.99,0000 0000 0000 0000 000000
2018-07-25 03:02:51,0.00,0.60,0.00,24.37,28.02,30.99,13.90,46.67,1021.99,2024.99,3179.54,2917.77,3339.96,599.74,596.07,42.04,0000 0000 0000 0000 000000
2018-07-25 03:07:52,-0.00,0.60,0.00,24.37,28.02,30.95,14.00,46.69,1021.99,2024.99,3179.26,2917.62,3339.96,600.54,596.95,42.09,0000 0000 0000 0000 000000
2018-07-25 03:12:54,-0.00,0.60,0.00,24.37,28.02,30.97,13.96,46.80,1021.97,2024.99,3179.49,2917.79,3339.97,600.11,596.54,42.14,0000 0000 0000 0000 000000
2018-07-25 03:17:55,0.02,0.60,0.00,24.39,28.02,30.97,13.97,46.71,1021.91,2024.99,3179.08,2917.32,3339.80,600.38,596.68,42.20,0000 0000 0000 0000 000000
2018-07-25 03:22:56,-0.01,0.60,0.00,24.38,28.02,30.94,13.92,46.78,1021.83,2024.99,3179.06,2917.35,3339.80,600.19,596.36,42.25,0000 0000 0000 0000 000000
2018-07-25 03:27:58,0.01,0.60,0.00,24.39,28.03,30.93,13.92,46.67,1021.84,2024.99,3179.02,2917.26,3339.74,599.93,596.33,42.30,0000 0000 0000 0000 000000
2018-07-25 03:32:59,0.01,0.60,0.00,24.40,28.03,30.95,13.93,46.66,1021.88,2024.99,3179.01,2917.11,3339.49,600.21,596.52,42.35,0000 0000 0000 0000 000000
2018-07-25 03:38:00,-0.00,0.60,0.00,24.40,28.04,30.96,13.91,46.64,1021.72,2024.99,3179.00,2917.06,3339.21,599.95,596.12,42.40,0000 0000 0000 0000 000000
2018-07-25 03:43:01,0.00,0.60,0.00,24.40,28.04,30.95,13.94,46.62,1021.61,2024.99,3179.00,2917.05,3339.10,600.02,596.34,42.45,0000 0000 0000 0000 000000
2018-07-25 03:48:02,-0.00,0.60,0.00,24.40,28.05,31.00,13.93,46.61,1021.55,2024.98,3179.02,2917.09,3339.06,599.94,596.11,42.50,0000 0000 0000 0000 000000
2018-07-25 03:53:04,-0.01,0.60,0.00,24.40,28.05,30.94,13.97,46.86,1021.60,2024.98,3179.02,2917.15,3339.12,599.95,596.22,42.55,0000 0000 0000 0000 000000
2018-07-25 03:58:05,0.00,0.60,0.00,24.42,28.05,30.98,13.87,46.64,1021.55,2024.98,3179.01,2917.07,3339.06,599.53,595.61,42.60,0000 0000 0000 0000 000000
2018-07-25 04:03:07,-0.00,0.60,0.00,24.42,28.05,30.96,13.96,46.80,1021.53,2024.98,3179.00,2917.03,3339.02,600.08,596.06,42.65,0000 0000 0000 0000 000000
2018-07-25 04:08:08,0.00,0.60,0.00,24.42,28.05,30.94,13.95,46.65,1021.51,2024.99,3179.01,2917.09,3339.05,599.64,595.69,42.70,0000 0000 0000 0000 000000
2018-07-25 04:13:09,0.00,0.60,0.00,24.42,28.05,30.97,13.89,46.61,1021.53,2024.99,3179.01,2917.19,3339.07,599.97,595.97,42.75,0000 0000 0000 0000 000000
2018-07-25 04:18:11,-0.00,0.60,0.00,24.42,28.05,30.97,13.90,46.65,1021.53,2024.99,3179.01,2917.12,3339.07,599.90,596.00,42.80,0000 0000 0000 0000 000000
2018-07-25 04:23:12,0.00,0.60,0.00,24.42,28.05,30.92,13.88,46.63,1021.54,2024.99,3179.00,2917.03,3339.00,599.65,595.73,42.85,0000 0000 0000 0000 000000
2018-07-25 04:28:14,-0.00,0.60,0.00,24.42,28.05,30.97,13.96,46.77,1021.52,2024.98,3178.99,2917.02,3339.00,600.06,596.14,42.90,0000 0000 0000 0000 000000
2018-07-25 04:33:15,0.00,0.60,0.00,24.44,28.05,30.93,13.94,46.74,1021.52,2024.97,3178.97,2917.01,3339.00,600.28,596.32,42.95,0000 0000 0000 0000 000000
2018-07-25 04:38:16,0.00,0.60,0.00,24.45,28.05,30.94,13.97,46.63,1021.51,2024.98,3178.87,2917.01,3339.00,599.97,595.86,43.00,0000 0000 0000 0000 000000
2018-07-25 04:43:17,-0.00,0.60,0.00,24.45,28.05,30.96,13.88,46.65,1021.50,2024.97,3178.92,2917.00,3339.00,600.05,596.03,43.05,0000 0000 0000 0000 000000
2018-07-25 04:48:18,0.00,0.60,0.00,24.45,28.07,30.93,13.90,46.72,1021.50,2024.96,3178.87,2917.00,3339.00,599.93,595.88,43.11,0000 0000 0000 0000 000000
2018-07-25 04:53:19,0.00,0.60,0.00,24.45,28.07,30.94,13.95,46.88,1021.50,2024.98,3178.83,2917.00,3338.98,600.19,596.16,43.16,0000 0000 0000 0000 000000
2018-07-25 04:58:21,-0.00,0.60,0.00,24.47,28.07,30.92,13.88,46.82,1021.50,2024.95,3178.87,2917.00,3338.98,600.05,595.91,43.21,0000 0000 0000 0000 000000
2018-07-25 05:03:22,0.00,0.60,0.00,24.48,28.07,30.98,14.04,46.88,1021.50,2024.97,3178.66,2917.00,3338.99,600.30,596.24,43.26,0000 0000 0000 0000 000000
2018-07-25 05:08:23,0.00,0.60,0.00,24.48,28.07,30.93,13.96,46.84,1021.49,2024.98,3178.68,2917.00,3338.99,599.94,595.84,43.31,0000 0000 0000 0000 000000
2018-07-25 05:13:24,-0.00,0.60,0.00,24.48,28.07,30.97,13.92,46.68,1021.45,2024.97,3178.73,2917.00,3338.98,599.89,595.72,43.36,0000 0000 0000 0000 000000
2018-07-25 05:18:25,0.00,0.60,0.00,24.48,28.07,30.98,13.94,46.79,1021.40,2024.98,3178.89,2917.00,3338.97,599.94,595.78,43.41,0000 0000 0000 0000 000000
2018-07-25 05:23:27,0.00,0.60,0.00,24.48,28.07,30.97,13.87,46.63,1021.26,2024.94,3178.87,2917.00,3338.94,600.10,595.91,43.46,0000 0000 0000 0000 000000
2018-07-25 05:28:28,-0.00,0.60,0.00,24.50,28.08,30.92,13.91,46.73,1021.20,2024.92,3178.90,2917.00,3338.94,599.93,595.70,43.51,0000 0000 0000 0000 000000
2018-07-25 05:33:29,-0.00,0.60,0.00,24.50,28.09,30.94,13.86,46.59,1021.14,2024.89,3178.91,2917.00,3338.91,599.81,595.53,43.56,0000 0000 0000 0000 000000
2018-07-25 05:38:30,-0.02,0.60,0.00,24.50,28.10,30.99,14.03,46.78,1021.04,2024.81,3178.84,2917.00,3338.84,600.09,595.73,43.61,0000 0000 0000 0000 000000
2018-07-25 05:43:31,-0.00,0.60,0.00,24.50,28.10,30.99,13.93,46.81,1021.02,2024.49,3178.50,2917.00,3338.32,600.21,595.76,43.66,0000 0000 0000 0000 000000
2018-07-25 05:48:32,-0.00,0.60,0.00,24.50,28.10,30.94,13.96,47.04,1021.03,2024.38,3178.42,2916.99,3338.28,600.44,596.05,43.71,0000 0000 0000 0000 000000
2018-07-25 05:53:34,-0.02,0.60,0.00,24.52,28.10,30.97,13.89,47.20,1021.02,2024.32,3178.67,2916.99,3338.35,600.11,595.69,43.76,0000 0000 0000 0000 000000
2018-07-25 05:58:35,-0.00,0.60,0.00,24.50,28.10,30.99,13.86,47.00,1021.02,2024.17,3178.79,2916.99,3338.37,600.10,595.64,43.81,0000 0000 0000 0000 000000
2018-07-25 06:03:36,-0.01,0.60,0.00,24.52,28.10,30.99,13.91,47.02,1021.02,2024.11,3178.78,2916.99,3338.26,599.83,595.43,43.86,0000 0000 0000 0000 000000
2018-07-25 06:08:38,0.02,0.60,0.00,24.52,28.10,31.01,13.96,46.98,1021.02,2024.19,3178.48,2916.99,3338.13,600.15,595.66,43.91,0000 0000 0000 0000 000000
2018-07-25 06:13:39,-0.00,0.60,0.00,24.52,28.12,30.99,13.97,47.12,1021.03,2024.16,3178.13,2916.99,3338.03,600.05,595.68,43.96,0000 0000 0000 0000 000000
2018-07-25 06:18:40,-0.00,0.60,0.00,24.52,28.12,30.98,14.04,47.37,1021.02,2024.09,3178.06,2916.98,3338.02,600.40,596.02,44.02,0000 0000 0000 0000 000000
2018-07-25 06:23:41,0.00,0.60,0.00,24.52,28.12,30.96,13.92,47.24,1021.02,2024.06,3178.01,2916.94,3338.01,599.63,595.26,44.07,0000 0000 0000 0000 000000
2018-07-25 06:28:43,0.01,0.60,0.00,24.52,28.12,31.00,13.91,47.47,1021.03,2024.06,3178.00,2916.81,3338.00,600.06,595.48,44.12,0000 0000 0000 0000 000000
2018-07-25 06:33:44,-0.00,0.60,0.00,24.54,28.12,31.00,13.98,47.44,1021.02,2024.04,3178.00,2916.86,3338.00,600.02,595.49,44.17,0000 0000 0000 0000 000000
2018-07-25 06:38:45,-0.00,0.60,0.00,24.53,28.12,30.98,13.94,47.43,1021.02,2024.03,3178.00,2916.90,3338.00,600.10,595.49,44.22,0000 0000 0000 0000 000000
2018-07-25 06:43:47,0.00,0.60,0.00,24.54,28.12,31.00,13.94,47.44,1021.01,2024.03,3177.99,2916.69,3338.00,600.16,595.74,44.27,0000 0000 0000 0000 000000
2018-07-25 06:48:48,0.00,0.60,0.00,24.53,28.12,31.00,13.91,47.24,1021.01,2024.02,3177.99,2916.81,3337.99,599.90,595.58,44.32,0000 0000 0000 0000 000000
2018-07-25 06:53:49,0.00,0.60,0.00,24.52,28.12,30.98,14.00,47.30,1021.01,2024.00,3177.98,2916.59,3337.98,600.27,595.83,44.37,0000 0000 0000 0000 000000
2018-07-25 06:58:51,0.00,0.60,0.00,24.52,28.12,31.04,13.86,47.21,1021.01,2024.00,3177.98,2916.36,3337.97,600.35,595.86,44.42,0000 0000 0000 0000 000000
2018-07-25 07:03:52,0.00,0.60,0.00,24.52,28.13,31.06,13.99,47.38,1021.01,2024.01,3177.98,2916.44,3337.96,600.35,595.84,44.47,0000 0000 0000 0000 000000
2018-07-25 07:08:53,0.02,0.60,0.00,24.52,28.13,31.06,14.03,47.24,1021.01,2024.05,3177.76,2916.43,3337.88,600.56,595.98,44.52,0000 0000 0000 0000 000000
2018-07-25 07:13:55,0.01,0.60,0.00,24.52,28.14,31.04,13.96,47.23,1021.00,2024.02,3177.11,2916.07,3337.66,600.07,595.61,44.57,0000 0000 0000 0000 000000
2018-07-25 07:18:56,0.00,0.60,0.00,24.52,28.14,31.07,13.90,47.02,1021.01,2024.01,3177.12,2916.08,3337.50,599.88,595.48,44.62,0000 0000 0000 0000 000000
2018-07-25 07:23:57,0.01,0.60,0.00,24.52,28.14,31.06,13.89,47.04,1021.00,2024.01,3177.02,2916.01,3337.11,599.89,595.31,44.67,0000 0000 0000 0000 000000
2018-07-25 07:28:58,0.00,0.60,0.00,24.52,28.15,31.06,14.00,47.08,1021.01,2024.00,3176.98,2916.00,3337.00,600.30,595.87,44.72,0000 0000 0000 0000 000000
2018-07-25 07:33:59,0.00,0.60,0.00,24.52,28.15,31.09,13.92,47.14,1021.01,2024.00,3176.92,2916.00,3337.00,599.88,595.43,44.77,0000 0000 0000 0000 000000
2018-07-25 07:39:00,0.00,0.60,0.00,24.51,28.15,31.07,13.83,46.98,1021.01,2024.00,3176.83,2915.99,3336.99,599.78,595.43,44.82,0000 0000 0000 0000 000000
2018-07-25 07:44:02,0.00,0.60,0.00,24.51,28.15,31.08,13.94,47.02,1021.01,2024.00,3176.54,2915.99,3336.99,600.06,595.62,44.87,0000 0000 0000 0000 000000
2018-07-25 07:49:03,-0.00,0.60,0.00,24.51,28.15,31.08,13.90,47.11,1021.01,2024.00,3176.40,2915.98,3336.98,599.97,595.58,44.92,0000 0000 0000 0000 000000
2018-07-25 07:54:04,0.00,0.60,0.00,24.49,28.15,31.09,13.98,46.90,1021.01,2024.00,3176.08,2915.99,3336.98,600.45,596.00,44.97,0000 0000 0000 0000 000000
2018-07-25 07:59:06,0.00,0.60,0.00,24.49,28.15,31.07,13.96,47.02,1021.01,2024.00,3176.10,2915.99,3336.98,600.09,595.71,45.03,0000 0000 0000 0000 000000
2018-07-25 08:04:07,0.00,0.60,0.00,24.48,28.15,31.11,13.88,46.95,1020.99,2024.00,3176.05,2915.99,3336.97,599.93,595.54,45.08,0000 0000 0000 0000 000000
2018-07-25 08:09:08,0.00,0.60,0.00,24.47,28.15,31.11,13.94,46.92,1020.98,2024.00,3176.02,2915.99,3336.97,600.06,595.68,45.13,0000 0000 0000 0000 000000
2018-07-25 08:14:10,0.00,0.60,0.00,24.47,28.15,31.10,13.91,46.78,1020.98,2024.00,3176.00,2915.98,3336.86,600.03,595.71,45.18,0000 0000 0000 0000 000000
2018-07-25 08:19:11,0.00,0.60,0.00,24.47,28.15,31.10,13.90,46.89,1020.89,2024.00,3176.01,2915.98,3336.86,599.84,595.40,45.23,0000 0000 0000 0000 000000
2018-07-25 08:24:12,0.00,0.60,0.00,24.49,28.14,31.11,13.96,46.96,1020.76,2024.00,3176.00,2915.99,3336.85,600.06,595.68,45.28,0000 0000 0000 0000 000000
2018-07-25 08:29:14,0.00,0.60,0.00,24.48,28.14,31.14,13.95,46.85,1020.65,2024.00,3176.00,2915.98,3336.65,600.01,595.47,45.33,0000 0000 0000 0000 000000
2018-07-25 08:34:15,0.00,0.60,0.00,24.47,28.14,31.12,13.86,46.78,1020.57,2024.00,3176.00,2915.98,3336.43,599.67,595.01,45.38,0000 0000 0000 0000 000000
2018-07-25 08:39:16,-0.01,0.60,0.00,24.47,28.13,31.14,13.94,46.83,1020.55,2024.00,3176.00,2915.98,3336.72,600.06,595.46,45.43,0000 0000 0000 0000 000000
2018-07-25 08:44:17,0.00,0.60,0.00,24.46,28.13,31.09,13.90,46.73,1020.58,2024.00,3176.00,2915.99,3336.77,600.00,595.36,45.48,0000 0000 0000 0000 000000
2018-07-25 08:49:19,0.00,0.60,0.00,24.47,28.12,31.11,14.01,46.87,1020.57,2024.00,3176.00,2915.99,3336.60,600.65,596.03,45.53,0000 0000 0000 0000 000000
2018-07-25 08:54:20,0.00,0.60,0.00,24.45,28.12,31.13,13.94,46.88,1020.70,2024.00,3176.00,2915.99,3336.29,600.41,596.01,45.58,0000 0000 0000 0000 000000
2018-07-25 08:59:21,-0.00,0.60,0.00,24.45,28.12,31.11,13.92,46.67,1020.76,2024.00,3175.99,2915.99,3336.17,599.84,595.31,45.63,0000 0000 0000 0000 000000
2018-07-25 09:04:23,0.00,0.60,0.00,24.45,28.12,31.13,13.84,46.68,1020.77,2024.00,3175.91,2915.98,3336.13,599.86,595.54,45.68,0000 0000 0000 0000 000000
2018-07-25 09:09:24,0.01,0.60,0.00,24.44,28.12,31.07,13.95,46.84,1020.80,2024.00,3175.45,2915.96,3336.01,600.31,595.92,45.73,0000 0000 0000 0000 000000
2018-07-25 09:14:26,0.00,0.60,0.00,24.42,28.12,31.11,13.92,46.83,1020.77,2024.00,3175.27,2915.97,3336.00,599.93,595.44,45.78,0000 0000 0000 0000 000000
2018-07-25 09:19:27,0.00,0.60,0.00,24.42,28.12,31.13,13.89,46.79,1020.67,2024.00,3175.11,2915.96,3336.01,600.06,595.54,45.83,0000 0000 0000 0000 000000
2018-07-25 09:24:28,0.00,0.60,0.00,24.40,28.10,31.07,13.90,46.85,1020.56,2024.01,3175.08,2915.98,3336.02,599.98,595.46,45.88,0000 0000 0000 0000 000000
2018-07-25 09:29:30,0.00,0.60,0.00,24.40,28.10,31.10,13.96,46.90,1020.54,2024.01,3175.06,2915.97,3336.00,600.40,595.99,45.93,0000 0000 0000 0000 000000
2018-07-25 09:34:31,0.00,0.60,0.00,24.40,28.10,31.09,13.96,46.82,1020.53,2024.01,3175.02,2915.97,3336.00,599.91,595.47,45.98,0000 0000 0000 0000 000000
2018-07-25 09:39:32,-0.00,0.60,0.00,24.39,28.10,31.10,13.94,46.91,1020.53,2024.01,3175.00,2915.96,3336.00,599.95,595.55,46.04,0000 0000 0000 0000 000000
2018-07-25 09:44:33,0.00,0.60,0.00,24.38,28.10,31.11,14.00,47.15,1020.53,2024.00,3174.99,2915.92,3336.00,600.22,595.79,46.09,0000 0000 0000 0000 000000
2018-07-25 09:49:34,0.00,0.60,0.00,24.37,28.10,31.10,13.94,46.98,1020.53,2024.00,3174.98,2915.85,3335.99,600.08,595.69,46.14,0000 0000 0000 0000 000000
2018-07-25 09:54:35,0.00,0.60,0.00,24.37,28.08,31.11,13.98,47.26,1020.52,2024.00,3174.98,2915.88,3335.99,600.15,595.69,46.19,0000 0000 0000 0000 000000
2018-07-25 09:59:37,-0.00,0.60,0.00,24.37,28.07,31.10,14.00,47.38,1020.53,2024.02,3174.98,2915.93,3335.99,599.93,595.51,46.24,0000 0000 0000 0000 000000
2018-07-25 10:04:38,0.00,0.60,0.00,24.35,28.07,31.08,13.98,47.44,1020.52,2024.04,3174.92,2915.91,3335.99,600.17,595.73,46.29,0000 0000 0000 0000 000000
2018-07-25 10:09:39,-0.00,0.60,0.00,24.36,28.07,31.07,13.92,47.38,1020.52,2024.02,3174.89,2915.93,3335.99,599.75,595.36,46.34,0000 0000 0000 0000 000000
2018-07-25 10:14:41,0.00,0.60,0.00,24.35,28.07,31.07,13.87,47.58,1020.52,2024.03,3174.87,2915.91,3335.99,599.66,595.29,46.39,0000 0000 0000 0000 000000
2018-07-25 10:19:42,0.00,0.60,0.00,24.35,28.05,31.08,13.95,47.46,1020.52,2024.07,3174.87,2915.94,3335.99,600.25,595.91,46.44,0000 0000 0000 0000 000000
2018-07-25 10:24:43,0.00,0.60,0.00,24.34,28.05,31.05,13.92,47.57,1020.52,2024.10,3174.83,2915.95,3335.99,599.79,595.47,46.49,0000 0000 0000 0000 000000
2018-07-25 10:29:45,0.00,0.60,0.00,24.32,28.05,31.08,13.98,47.38,1020.52,2024.10,3174.72,2915.96,3335.98,599.97,595.72,46.54,0000 0000 0000 0000 000000
2018-07-25 10:34:46,0.01,0.60,0.00,24.32,28.05,31.06,13.95,47.33,1020.52,2024.13,3174.52,2915.95,3335.98,599.85,595.56,46.59,0000 0000 0000 0000 000000
2018-07-25 10:39:48,0.01,0.60,0.00,24.31,28.04,31.07,13.96,47.25,1020.52,2024.16,3174.30,2915.97,3335.98,600.01,595.54,46.64,0000 0000 0000 0000 000000
2018-07-25 10:44:49,0.02,0.60,0.00,24.30,28.03,31.05,13.93,47.17,1020.52,2024.30,3174.13,2915.95,3335.98,599.45,595.21,46.69,0000 0000 0000 0000 000000
2018-07-25 10:49:50,0.02,0.60,0.00,24.30,28.02,31.04,13.96,46.91,1020.52,2024.50,3174.06,2915.97,3335.98,599.80,595.55,46.74,0000 0000 0000 0000 000000
2018-07-25 10:54:52,0.01,0.60,0.00,24.29,28.02,31.03,13.95,47.03,1020.52,2024.66,3174.05,2915.97,3335.99,599.97,595.70,46.79,0000 0000 0000 0000 000000
2018-07-25 10:59:53,0.01,0.61,0.00,24.29,28.02,31.02,13.89,46.77,1020.51,2024.84,3174.03,2915.98,3335.98,600.08,595.90,46.84,0000 0000 0000 0000 000000
2018-07-25 11:04:54,0.01,0.61,0.00,24.26,28.01,31.02,13.93,46.98,1020.51,2024.93,3174.05,2915.99,3335.99,600.17,595.89,46.89,0000 0000 0000 0000 000000
2018-07-25 11:09:55,0.00,0.61,0.00,24.26,28.00,31.02,13.89,46.77,1020.51,2024.98,3174.09,2915.99,3335.99,599.88,595.69,46.94,0000 0000 0000 0000 000000
2018-07-25 11:14:57,-0.00,0.61,0.00,24.25,28.00,31.04,13.84,46.63,1020.42,2024.99,3174.04,2915.99,3335.99,599.67,595.47,46.99,0000 0000 0000 0000 000000
2018-07-25 11:19:58,0.00,0.61,0.00,24.22,28.00,31.01,13.87,46.71,1020.29,2024.98,3174.01,2915.99,3335.99,599.87,595.64,47.05,0000 0000 0000 0000 000000
2018-07-25 11:24:59,0.00,0.61,0.00,24.22,27.99,31.05,13.91,46.60,1020.24,2024.99,3174.01,2915.99,3335.99,600.23,596.00,47.10,0000 0000 0000 0000 000000
2018-07-25 11:30:01,0.00,0.61,0.00,24.22,27.97,31.03,13.93,46.68,1020.15,2024.99,3174.01,2915.99,3335.98,600.04,595.74,47.15,0000 0000 0000 0000 000000
2018-07-25 11:35:02,0.00,0.61,0.00,24.20,27.97,31.01,13.87,46.67,1020.08,2024.99,3174.01,2915.99,3335.99,600.08,595.65,47.20,0000 0000 0000 0000 000000
2018-07-25 11:40:04,0.00,0.61,0.00,24.18,27.97,30.98,13.91,46.61,1020.10,2024.99,3174.00,2915.99,3335.99,599.90,595.72,47.25,0000 0000 0000 0000 000000
2018-07-25 11:45:05,0.00,0.61,0.00,24.17,27.95,31.01,13.88,46.70,1020.13,2024.99,3174.01,2915.99,3335.99,599.93,595.67,47.30,0000 0000 0000 0000 000000
2018-07-25 11:50:06,0.00,0.61,0.00,24.17,27.95,30.97,13.99,46.67,1020.07,2024.99,3174.00,2915.99,3335.99,600.18,595.92,47.35,0000 0000 0000 0000 000000
2018-07-25 11:55:08,0.00,0.61,0.00,24.15,27.94,30.97,13.96,46.68,1020.06,2025.00,3174.01,2915.99,3335.99,600.15,595.76,47.40,0000 0000 0000 0000 000000
2018-07-25 12:00:09,0.00,0.61,0.00,24.12,27.92,30.94,13.93,46.64,1020.04,2025.00,3174.02,2916.00,3335.99,599.77,595.61,47.45,0000 0000 0000 0000 000000
2018-07-25 12:05:10,0.00,0.61,0.00,24.12,27.92,30.95,13.92,46.77,1020.04,2025.01,3174.01,2916.01,3335.99,600.25,596.03,47.50,0000 0000 0000 0000 000000
2018-07-25 12:10:11,0.00,0.61,0.00,24.11,27.91,30.93,13.92,46.82,1020.04,2025.00,3174.00,2916.00,3335.98,599.79,595.55,47.55,0000 0000 0000 0000 000000
2018-07-25 12:15:13,0.00,0.61,0.00,24.11,27.90,30.92,13.98,46.57,1020.04,2025.01,3174.01,2916.00,3335.99,600.38,596.22,47.60,0000 0000 0000 0000 000000
2018-07-25 12:20:14,0.00,0.61,0.00,24.10,27.90,30.92,13.99,46.83,1020.04,2025.04,3174.01,2916.01,3335.99,600.31,596.15,47.65,0000 0000 0000 0000 000000
2018-07-25 12:25:16,0.00,0.61,0.00,24.09,27.88,30.94,14.02,46.77,1020.03,2025.05,3174.00,2916.01,3336.00,600.42,596.20,47.70,0000 0000 0000 0000 000000
2018-07-25 12:30:17,-0.00,0.61,0.00,24.07,27.87,30.92,14.00,46.92,1020.03,2025.09,3174.00,2916.07,3336.00,600.02,595.87,47.75,0000 0000 0000 0000 000000
2018-07-25 12:35:18,0.02,0.61,0.00,24.05,27.87,30.90,13.95,46.79,1020.03,2025.24,3174.01,2916.18,3336.00,599.71,595.72,47.80,0000 0000 0000 0000 000000
2018-07-25 12:40:20,-0.01,0.61,0.00,24.05,27.85,30.90,14.03,46.79,1020.03,2025.27,3174.00,2916.19,3336.00,600.28,596.09,47.85,0000 0000 0000 0000 000000
2018-07-25 12:45:21,0.02,0.61,0.00,24.03,27.85,30.90,13.90,46.65,1020.03,2025.48,3174.00,2916.27,3336.00,600.00,595.92,47.90,0000 0000 0000 0000 000000
2018-07-25 12:50:22,0.01,0.61,0.00,24.01,27.83,30.88,13.89,46.62,1020.03,2025.70,3174.01,2916.51,3336.01,599.65,595.66,47.95,0000 0000 0000 0000 000000
2018-07-25 12:55:24,-0.01,0.61,0.00,24.00,27.82,30.85,13.92,46.65,1020.03,2025.81,3174.00,2916.75,3336.01,599.73,595.69,48.01,0000 0000 0000 0000 000000